Location: Unspecified
(41.5516°N, 88.1098°W)
Time: 16:36:36
(UTC-05:00)

Resurs 1-4 Rocket - Visible Passes

Search period start: 23 April 2017 00:00
Search period end: 03 May 2017 00:00
Orbit: 799 x 815 km, 98.5° (Epoch: 22 April)

Date Brightness Start Highest point End Pass type
(mag) Time Alt. Az. Time Alt. Az. Time Alt. Az.
23 Apr 2.1 03:16:47 10° NNE 03:22:04 78° ESE 03:22:49 64° SSE visible
23 Apr 3.9 04:58:26 10° NNW 05:01:14 15° WNW 05:03:54 10° W visible
24 Apr 2.7 02:52:23 10° NNE 02:57:27 46° E 02:58:03 44° ESE visible
24 Apr 3.4 04:32:53 10° NNW 04:36:58 23° WNW 04:39:08 18° W visible
25 Apr 3.6 02:28:17 10° NE 02:32:45 27° E 02:33:17 27° ESE visible
25 Apr 2.8 04:07:49 10° N 04:12:37 37° WNW 04:14:22 29° WSW visible
26 Apr 4.2 02:04:41 10° NE 02:07:57 16° E 02:08:30 16° E visible
26 Apr 2.1 03:42:59 10° N 03:48:11 62° WNW 03:49:36 45° SW visible
27 Apr 2.1 03:18:23 10° NNE 03:23:40 81° ESE 03:24:50 56° S visible
27 Apr 4.0 05:00:08 10° NNW 05:02:48 14° WNW 05:05:29 10° W visible
28 Apr 2.7 02:53:58 10° NNE 02:59:04 48° E 03:00:03 42° SE visible
28 Apr 3.5 04:34:33 10° NNW 04:38:33 23° WNW 04:41:09 16° WSW visible
29 Apr 3.5 02:29:49 10° NE 02:34:22 29° E 02:35:17 27° ESE visible
29 Apr 2.8 04:09:26 10° N 04:14:13 36° WNW 04:16:22 26° WSW visible
30 Apr 4.2 02:06:10 10° NE 02:09:35 17° E 02:10:31 16° ESE visible
30 Apr 2.2 03:44:36 10° N 03:49:47 59° WNW 03:51:36 38° SW visible
01 May 2.0 03:19:58 10° NNE 03:25:16 84° ESE 03:26:49 48° S visible
01 May 4.0 05:01:51 10° NNW 05:04:23 14° WNW 05:06:55 10° W visible
02 May 2.7 02:55:32 10° NNE 03:00:40 50° E 03:02:02 40° SE visible
02 May 3.5 04:36:12 10° NNW 04:40:08 22° WNW 04:43:07 14° WSW visible
